Time,TemperatureF,DewpointF,PressureIn,WindDirection,WindDirectionDegrees,WindSpeedMPH,WindSpeedGustMPH,Humidity,HourlyPrecipIn,Conditions,Clouds,dailyrainin,SoftwareType,DateUTC
2013-10-12 00:02:00,45.1,34.2,30.04,North,355,0.0,0.0,65,0.00,,,0.00,meteobridge,2013-10-12 06:02:00,
2013-10-12 00:07:00,45.0,34.3,30.04,North,355,0.0,0.0,66,0.00,,,0.00,meteobridge,2013-10-12 06:07:00,
2013-10-12 00:12:00,44.8,34.2,30.04,North,355,0.0,0.0,66,0.00,,,0.00,meteobridge,2013-10-12 06:12:00,
2013-10-12 00:17:00,44.6,34.3,30.04,North,355,0.0,0.9,67,0.00,,,0.00,meteobridge,2013-10-12 06:17:00,
2013-10-12 00:22:00,45.1,34.5,30.04,NNW,338,0.0,0.9,66,0.00,,,0.00,meteobridge,2013-10-12 06:22:00,
2013-10-12 00:27:00,45.5,34.3,30.04,NNW,338,0.0,0.0,65,0.00,,,0.00,meteobridge,2013-10-12 06:27:00,
2013-10-12 00:33:00,45.3,34.3,30.04,NNW,338,0.0,0.0,65,0.00,,,0.00,meteobridge,2013-10-12 06:33:00,
2013-10-12 00:38:00,45.1,34.5,30.04,NNW,338,0.0,0.0,66,0.00,,,0.00,meteobridge,2013-10-12 06:38:00,
2013-10-12 00:43:00,44.8,34.2,30.04,NNW,338,0.0,0.0,66,0.00,,,0.00,meteobridge,2013-10-12 06:43:00,
2013-10-12 00:48:00,44.4,34.2,30.04,NNW,338,0.9,0.9,67,0.00,,,0.00,meteobridge,2013-10-12 06:48:00,
2013-10-12 00:53:00,44.4,34.2,30.05,NNW,338,0.0,0.0,67,0.00,,,0.00,meteobridge,2013-10-12 06:53:00,
2013-10-12 00:58:00,44.4,34.2,30.05,NNW,338,0.0,0.0,67,0.00,,,0.00,meteobridge,2013-10-12 06:58:00,
2013-10-12 01:04:00,44.1,34.2,30.05,NNW,338,0.0,0.0,68,0.00,,,0.00,meteobridge,2013-10-12 07:04:00,
2013-10-12 01:09:00,43.5,34.0,30.05,NNW,338,0.0,0.0,69,0.00,,,0.00,meteobridge,2013-10-12 07:09:00,
2013-10-12 01:14:00,43.3,34.2,30.05,NNW,338,0.0,0.0,70,0.00,,,0.00,meteobridge,2013-10-12 07:14:00,
2013-10-12 01:19:00,43.2,34.3,30.06,NNW,338,0.0,0.0,71,0.00,,,0.00,meteobridge,2013-10-12 07:19:00,
2013-10-12 01:24:00,42.8,34.0,30.06,NNW,338,0.0,0.0,71,0.00,,,0.00,meteobridge,2013-10-12 07:24:00,
2013-10-12 01:30:00,42.4,34.3,30.06,NNW,338,0.0,0.0,73,0.00,,,0.00,meteobridge,2013-10-12 07:30:00,
2013-10-12 01:35:00,42.3,34.2,30.06,NNW,338,0.0,0.0,73,0.00,,,0.00,meteobridge,2013-10-12 07:35:00,
2013-10-12 01:40:00,41.9,34.2,30.06,NNW,338,0.0,0.0,74,0.00,,,0.00,meteobridge,2013-10-12 07:40:00,
2013-10-12 01:45:00,41.5,34.2,30.07,NNW,338,0.0,0.0,75,0.00,,,0.00,meteobridge,2013-10-12 07:45:00,
2013-10-12 01:50:00,41.4,34.3,30.07,NNW,338,0.0,0.0,76,0.00,,,0.00,meteobridge,2013-10-12 07:50:00,
2013-10-12 01:55:00,41.4,34.3,30.07,NNW,338,0.0,0.0,76,0.00,,,0.00,meteobridge,2013-10-12 07:55:00,
2013-10-12 02:01:00,41.2,34.2,30.07,NNW,338,0.0,0.0,76,0.00,,,0.00,meteobridge,2013-10-12 08:01:00,
2013-10-12 02:06:00,41.2,34.5,30.07,NNW,338,0.0,0.0,77,0.00,,,0.00,meteobridge,2013-10-12 08:06:00,
2013-10-12 02:11:00,40.8,34.2,30.07,NNW,338,0.0,0.0,77,0.00,,,0.00,meteobridge,2013-10-12 08:11:00,
2013-10-12 02:16:00,40.6,34.3,30.07,NNW,338,0.0,0.0,78,0.00,,,0.00,meteobridge,2013-10-12 08:16:00,
2013-10-12 02:22:00,40.5,34.2,30.07,NNW,338,0.0,0.0,78,0.00,,,0.00,meteobridge,2013-10-12 08:22:00,
2013-10-12 02:27:00,40.5,34.5,30.07,NNW,338,0.0,0.0,79,0.00,,,0.00,meteobridge,2013-10-12 08:27:00,
2013-10-12 02:32:00,40.5,34.2,30.07,NNW,338,0.0,0.0,78,0.00,,,0.00,meteobridge,2013-10-12 08:32:00,
2013-10-12 02:37:00,40.1,34.2,30.07,NNW,338,0.0,0.0,79,0.00,,,0.00,meteobridge,2013-10-12 08:37:00,
2013-10-12 02:42:00,39.9,34.3,30.07,NNW,338,0.0,0.0,80,0.00,,,0.00,meteobridge,2013-10-12 08:42:00,
2013-10-12 02:47:00,39.9,34.3,30.07,NNW,338,0.0,0.0,80,0.00,,,0.00,meteobridge,2013-10-12 08:47:00,
2013-10-12 02:53:00,39.9,34.0,30.07,NNW,338,0.0,0.0,79,0.00,,,0.00,meteobridge,2013-10-12 08:53:00,
2013-10-12 02:58:00,39.7,34.2,30.07,NNW,338,0.0,0.0,80,0.00,,,0.00,meteobridge,2013-10-12 08:58:00,
2013-10-12 03:03:00,39.7,34.2,30.06,NNW,338,0.0,0.0,80,0.00,,,0.00,meteobridge,2013-10-12 09:03:00,
2013-10-12 03:08:00,39.6,34.0,30.06,NNW,338,0.0,0.0,80,0.00,,,0.00,meteobridge,2013-10-12 09:08:00,
2013-10-12 03:13:00,40.5,34.5,30.06,NNW,338,0.9,2.0,79,0.00,,,0.00,meteobridge,2013-10-12 09:13:00,
2013-10-12 03:18:00,41.4,34.7,30.06,NNW,338,0.0,0.9,77,0.00,,,0.00,meteobridge,2013-10-12 09:18:00,
2013-10-12 03:24:00,41.4,34.3,30.06,NNW,338,0.0,0.9,76,0.00,,,0.00,meteobridge,2013-10-12 09:24:00,
2013-10-12 03:29:00,41.4,34.3,30.06,NNW,338,0.0,0.0,76,0.00,,,0.00,meteobridge,2013-10-12 09:29:00,
2013-10-12 03:34:00,41.2,33.8,30.06,NNW,338,0.0,0.0,75,0.00,,,0.00,meteobridge,2013-10-12 09:34:00,
2013-10-12 03:39:00,40.8,34.2,30.06,NNW,338,0.0,0.0,77,0.00,,,0.00,meteobridge,2013-10-12 09:39:00,
2013-10-12 03:44:00,40.5,34.2,30.06,NNW,338,0.0,0.0,78,0.00,,,0.00,meteobridge,2013-10-12 09:44:00,
2013-10-12 03:50:00,39.9,34.0,30.06,NNW,338,0.0,0.0,79,0.00,,,0.00,meteobridge,2013-10-12 09:50:00,
2013-10-12 03:55:00,39.6,34.0,30.06,NNW,338,0.0,0.0,80,0.00,,,0.00,meteobridge,2013-10-12 09:55:00,
2013-10-12 04:01:00,39.6,34.0,30.06,NNW,338,0.0,0.0,80,0.00,,,0.00,meteobridge,2013-10-12 10:01:00,
2013-10-12 04:06:00,39.6,34.0,30.06,NNW,338,0.0,0.0,80,0.00,,,0.00,meteobridge,2013-10-12 10:06:00,
2013-10-12 04:11:00,39.6,34.2,30.06,NNW,338,0.0,0.0,81,0.00,,,0.00,meteobridge,2013-10-12 10:11:00,
2013-10-12 04:16:00,39.4,34.0,30.06,NNW,338,0.0,0.0,81,0.00,,,0.00,meteobridge,2013-10-12 10:16:00,
2013-10-12 04:21:00,39.0,34.0,30.06,NNW,338,0.0,0.0,82,0.00,,,0.00,meteobridge,2013-10-12 10:21:00,
2013-10-12 04:26:00,38.7,33.6,30.06,NNW,338,0.0,0.9,82,0.00,,,0.00,meteobridge,2013-10-12 10:26:00,
2013-10-12 04:31:00,38.5,33.8,30.06,NNW,338,0.0,0.0,83,0.00,,,0.00,meteobridge,2013-10-12 10:31:00,
2013-10-12 04:36:00,38.5,33.8,30.07,North,350,0.0,2.0,83,0.00,,,0.00,meteobridge,2013-10-12 10:36:00,
2013-10-12 04:42:00,38.8,34.2,30.06,North,350,0.0,0.0,83,0.00,,,0.00,meteobridge,2013-10-12 10:42:00,
2013-10-12 04:47:00,38.7,33.6,30.06,North,350,0.0,0.0,82,0.00,,,0.00,meteobridge,2013-10-12 10:47:00,
2013-10-12 04:52:00,38.7,34.0,30.06,North,350,0.0,0.0,83,0.00,,,0.00,meteobridge,2013-10-12 10:52:00,
2013-10-12 04:57:00,38.5,33.8,30.06,North,350,0.0,0.0,83,0.00,,,0.00,meteobridge,2013-10-12 10:57:00,
2013-10-12 05:02:00,38.3,33.6,30.06,North,350,0.0,0.0,83,0.00,,,0.00,meteobridge,2013-10-12 11:02:00,
2013-10-12 05:07:00,38.1,33.8,30.06,North,350,0.0,0.0,84,0.00,,,0.00,meteobridge,2013-10-12 11:07:00,
2013-10-12 05:13:00,38.5,34.2,30.06,North,350,0.0,0.0,84,0.00,,,0.00,meteobridge,2013-10-12 11:13:00,
2013-10-12 05:18:00,38.5,33.8,30.06,North,350,0.0,0.0,83,0.00,,,0.00,meteobridge,2013-10-12 11:18:00,
2013-10-12 05:23:00,38.7,34.0,30.07,North,350,0.9,0.9,83,0.00,,,0.00,meteobridge,2013-10-12 11:23:00,
2013-10-12 05:28:00,38.7,34.0,30.07,North,350,0.0,0.0,83,0.00,,,0.00,meteobridge,2013-10-12 11:28:00,
2013-10-12 05:33:00,39.0,34.0,30.08,North,350,0.0,0.0,82,0.00,,,0.00,meteobridge,2013-10-12 11:33:00,
2013-10-12 05:38:00,39.0,33.6,30.08,North,350,0.0,0.0,81,0.00,,,0.00,meteobridge,2013-10-12 11:38:00,
2013-10-12 05:43:00,38.8,33.4,30.08,North,355,2.9,2.9,81,0.00,,,0.00,meteobridge,2013-10-12 11:43:00,
2013-10-12 05:48:00,39.4,33.8,30.08,North,355,2.9,2.9,80,0.00,,,0.00,meteobridge,2013-10-12 11:48:00,
2013-10-12 05:53:00,39.7,33.4,30.08,NNE,15,0.0,2.0,78,0.00,,,0.00,meteobridge,2013-10-12 11:53:00,
2013-10-12 05:58:00,39.7,33.4,30.08,North,0,0.0,2.0,78,0.00,,,0.00,meteobridge,2013-10-12 11:58:00,
2013-10-12 06:04:00,39.6,33.3,30.09,North,0,0.0,0.0,78,0.00,,,0.00,meteobridge,2013-10-12 12:04:00,
2013-10-12 06:09:00,39.4,33.1,30.09,North,0,0.0,0.9,78,0.00,,,0.00,meteobridge,2013-10-12 12:09:00,
2013-10-12 06:14:00,39.0,33.1,30.09,North,0,0.0,0.0,79,0.00,,,0.00,meteobridge,2013-10-12 12:14:00,
2013-10-12 06:19:00,39.0,33.1,30.09,North,0,0.9,2.0,79,0.00,,,0.00,meteobridge,2013-10-12 12:19:00,
2013-10-12 06:24:00,39.2,32.9,30.09,North,0,0.0,2.0,78,0.00,,,0.00,meteobridge,2013-10-12 12:24:00,
2013-10-12 06:30:00,39.2,32.9,30.09,North,355,0.0,0.0,78,0.00,,,0.00,meteobridge,2013-10-12 12:30:00,
2013-10-12 06:35:00,39.0,32.7,30.09,North,355,0.0,0.0,78,0.00,,,0.00,meteobridge,2013-10-12 12:35:00,
2013-10-12 06:40:00,39.2,32.9,30.09,North,10,0.9,2.0,78,0.00,,,0.00,meteobridge,2013-10-12 12:40:00,
2013-10-12 06:45:00,39.4,32.7,30.09,North,5,0.0,2.0,77,0.00,,,0.00,meteobridge,2013-10-12 12:45:00,
2013-10-12 06:51:00,39.2,32.5,30.09,North,5,0.0,0.0,77,0.00,,,0.00,meteobridge,2013-10-12 12:51:00,
2013-10-12 06:56:00,38.8,32.5,30.09,North,5,0.0,0.0,78,0.00,,,0.00,meteobridge,2013-10-12 12:56:00,
2013-10-12 07:01:00,38.3,32.4,30.10,North,5,0.0,0.0,79,0.00,,,0.00,meteobridge,2013-10-12 13:01:00,
2013-10-12 07:06:00,37.9,32.4,30.10,NNW,331,0.9,0.9,80,0.00,,,0.00,meteobridge,2013-10-12 13:06:00,
2013-10-12 07:11:00,37.9,32.4,30.10,NNW,333,0.9,0.9,80,0.00,,,0.00,meteobridge,2013-10-12 13:11:00,
2013-10-12 07:16:00,37.8,32.5,30.10,NNW,333,0.0,0.0,81,0.00,,,0.00,meteobridge,2013-10-12 13:16:00,
2013-10-12 07:22:00,38.1,32.7,30.10,NNW,348,0.0,2.9,81,0.00,,,0.00,meteobridge,2013-10-12 13:22:00,
2013-10-12 07:27:00,38.7,33.1,30.11,NNW,348,0.0,0.0,80,0.00,,,0.00,meteobridge,2013-10-12 13:27:00,
2013-10-12 07:32:00,38.8,32.9,30.11,North,350,0.0,4.0,79,0.00,,,0.00,meteobridge,2013-10-12 13:32:00,
2013-10-12 07:37:00,39.0,33.1,30.11,North,349,0.9,0.9,79,0.00,,,0.00,meteobridge,2013-10-12 13:37:00,
2013-10-12 07:42:00,39.2,33.3,30.11,North,349,0.0,0.9,79,0.00,,,0.00,meteobridge,2013-10-12 13:42:00,
2013-10-12 07:47:00,39.2,32.9,30.11,North,0,2.9,4.0,78,0.00,,,0.00,meteobridge,2013-10-12 13:47:00,
2013-10-12 07:52:00,39.6,33.6,30.11,North,355,0.0,0.9,79,0.00,,,0.00,meteobridge,2013-10-12 13:52:00,
2013-10-12 07:57:00,39.7,33.4,30.12,North,355,0.0,0.9,78,0.00,,,0.00,meteobridge,2013-10-12 13:57:00,
2013-10-12 08:03:00,39.9,33.6,30.12,North,355,0.0,0.0,78,0.00,,,0.00,meteobridge,2013-10-12 14:03:00,
2013-10-12 08:08:00,40.3,33.6,30.12,North,355,0.9,0.9,77,0.00,,,0.00,meteobridge,2013-10-12 14:08:00,
2013-10-12 08:13:00,40.6,33.6,30.12,North,355,0.9,4.0,76,0.00,,,0.00,meteobridge,2013-10-12 14:13:00,
2013-10-12 08:18:00,41.2,34.2,30.13,North,355,0.0,0.9,76,0.00,,,0.00,meteobridge,2013-10-12 14:18:00,
2013-10-12 08:23:00,41.5,34.2,30.13,NNW,348,0.0,0.9,75,0.00,,,0.00,meteobridge,2013-10-12 14:23:00,
2013-10-12 08:28:00,42.1,34.3,30.14,NNW,348,0.9,2.9,74,0.00,,,0.00,meteobridge,2013-10-12 14:28:00,
2013-10-12 08:34:00,42.4,34.7,30.14,NNW,348,0.0,0.0,74,0.00,,,0.00,meteobridge,2013-10-12 14:34:00,
2013-10-12 08:39:00,43.0,34.5,30.14,North,0,0.9,4.0,72,0.00,,,0.00,meteobridge,2013-10-12 14:39:00,
2013-10-12 08:44:00,43.2,34.7,30.14,North,5,0.0,0.9,72,0.00,,,0.00,meteobridge,2013-10-12 14:44:00,
2013-10-12 08:49:00,44.1,35.2,30.14,North,355,0.0,2.0,71,0.00,,,0.00,meteobridge,2013-10-12 14:49:00,
2013-10-12 08:54:00,44.2,35.1,30.14,North,5,0.9,0.9,70,0.00,,,0.00,meteobridge,2013-10-12 14:54:00,
2013-10-12 08:59:00,44.6,35.1,30.14,NNW,341,0.0,4.0,69,0.00,,,0.00,meteobridge,2013-10-12 14:59:00,
2013-10-12 09:04:00,45.0,35.4,30.14,NNW,344,0.9,2.9,69,0.00,,,0.00,meteobridge,2013-10-12 15:04:00,
2013-10-12 09:09:00,45.7,35.8,30.14,NNW,344,0.0,0.9,68,0.00,,,0.00,meteobridge,2013-10-12 15:09:00,
2013-10-12 09:14:00,46.2,35.1,30.14,North,350,2.9,4.9,65,0.00,,,0.00,meteobridge,2013-10-12 15:14:00,
2013-10-12 09:19:00,46.4,35.2,30.14,NE,39,2.0,2.0,65,0.00,,,0.00,meteobridge,2013-10-12 15:19:00,
2013-10-12 09:25:00,46.9,35.4,30.14,North,5,0.9,2.9,64,0.00,,,0.00,meteobridge,2013-10-12 15:25:00,
2013-10-12 09:30:00,47.5,35.6,30.14,North,355,0.0,2.0,63,0.00,,,0.00,meteobridge,2013-10-12 15:30:00,
2013-10-12 09:35:00,47.8,35.1,30.14,North,355,0.0,0.9,61,0.00,,,0.00,meteobridge,2013-10-12 15:35:00,
2013-10-12 09:40:00,48.7,35.4,30.14,North,355,0.0,2.0,60,0.00,,,0.00,meteobridge,2013-10-12 15:40:00,
2013-10-12 09:46:00,49.6,35.4,30.14,North,355,0.0,2.9,58,0.00,,,0.00,meteobridge,2013-10-12 15:46:00,
2013-10-12 09:51:00,49.5,34.3,30.14,North,0,0.9,4.0,56,0.00,,,0.00,meteobridge,2013-10-12 15:51:00,
2013-10-12 09:56:00,49.8,35.2,30.14,NNW,346,2.0,2.0,57,0.00,,,0.00,meteobridge,2013-10-12 15:56:00,
2013-10-12 10:01:00,50.2,35.1,30.14,North,355,2.9,2.9,56,0.00,,,0.00,meteobridge,2013-10-12 16:01:00,
2013-10-12 10:06:00,50.5,34.5,30.13,NW,305,0.0,2.0,54,0.00,,,0.00,meteobridge,2013-10-12 16:06:00,
2013-10-12 10:11:00,51.1,35.4,30.13,NW,326,0.9,4.0,55,0.00,,,0.00,meteobridge,2013-10-12 16:11:00,
2013-10-12 10:16:00,51.1,35.1,30.13,NNW,327,0.0,2.0,54,0.00,,,0.00,meteobridge,2013-10-12 16:16:00,
2013-10-12 10:21:00,51.6,35.1,30.14,NNW,342,2.0,4.9,53,0.00,,,0.00,meteobridge,2013-10-12 16:21:00,
2013-10-12 10:26:00,51.8,34.2,30.14,NW,319,2.9,2.9,51,0.00,,,0.00,meteobridge,2013-10-12 16:26:00,
2013-10-12 10:31:00,52.0,34.3,30.14,WNW,294,0.9,4.0,51,0.00,,,0.00,meteobridge,2013-10-12 16:31:00,
2013-10-12 10:36:00,52.5,35.4,30.14,North,350,0.9,2.0,52,0.00,,,0.00,meteobridge,2013-10-12 16:36:00,
2013-10-12 10:41:00,52.9,34.7,30.14,NNW,329,0.9,2.9,50,0.00,,,0.00,meteobridge,2013-10-12 16:41:00,
2013-10-12 10:46:00,52.9,34.7,30.13,NNW,346,0.9,2.9,50,0.00,,,0.00,meteobridge,2013-10-12 16:46:00,
2013-10-12 10:51:00,52.9,34.7,30.13,NW,309,0.9,2.0,50,0.00,,,0.00,meteobridge,2013-10-12 16:51:00,
2013-10-12 10:56:00,53.1,34.9,30.13,West,265,0.9,4.9,50,0.00,,,0.00,meteobridge,2013-10-12 16:56:00,
2013-10-12 11:01:00,54.1,36.0,30.13,WNW,300,0.9,2.0,50,0.00,,,0.00,meteobridge,2013-10-12 17:01:00,
2013-10-12 11:06:00,55.0,34.7,30.13,North,355,2.0,4.9,46,0.00,,,0.00,meteobridge,2013-10-12 17:06:00,
2013-10-12 11:11:00,54.9,34.5,30.13,North,5,6.0,6.9,46,0.00,,,0.00,meteobridge,2013-10-12 17:11:00,
2013-10-12 11:16:00,55.8,34.7,30.13,WNW,298,0.0,4.0,45,0.00,,,0.00,meteobridge,2013-10-12 17:16:00,
2013-10-12 11:22:00,55.6,34.5,30.12,NW,320,0.0,2.0,45,0.00,,,0.00,meteobridge,2013-10-12 17:22:00,
2013-10-12 11:27:00,55.9,35.4,30.12,North,355,0.9,4.9,46,0.00,,,0.00,meteobridge,2013-10-12 17:27:00,
2013-10-12 11:32:00,56.5,34.9,30.12,NW,306,0.0,2.0,44,0.00,,,0.00,meteobridge,2013-10-12 17:32:00,
2013-10-12 11:37:00,56.5,34.9,30.12,NNW,346,0.0,4.9,44,0.00,,,0.00,meteobridge,2013-10-12 17:37:00,
2013-10-12 11:42:00,56.3,34.7,30.12,West,271,0.9,2.0,44,0.00,,,0.00,meteobridge,2013-10-12 17:42:00,
2013-10-12 11:47:00,57.4,35.6,30.12,WSW,257,2.0,4.9,44,0.00,,,0.00,meteobridge,2013-10-12 17:47:00,
2013-10-12 11:52:00,57.9,35.6,30.11,WSW,238,0.0,0.9,43,0.00,,,0.00,meteobridge,2013-10-12 17:52:00,
2013-10-12 11:57:00,58.5,34.9,30.12,North,351,0.9,2.9,41,0.00,,,0.00,meteobridge,2013-10-12 17:57:00,
2013-10-12 12:02:00,58.3,35.2,30.11,NNW,327,0.0,2.0,42,0.00,,,0.00,meteobridge,2013-10-12 18:02:00,
2013-10-12 12:07:00,58.8,35.2,30.11,North,355,0.9,2.9,41,0.00,,,0.00,meteobridge,2013-10-12 18:07:00,
2013-10-12 12:12:00,59.0,35.4,30.11,West,261,0.0,0.9,41,0.00,,,0.00,meteobridge,2013-10-12 18:12:00,
2013-10-12 12:18:00,59.7,34.7,30.10,NE,39,0.0,0.9,39,0.00,,,0.00,meteobridge,2013-10-12 18:18:00,
2013-10-12 12:23:00,60.1,34.3,30.10,NE,38,0.0,2.9,38,0.00,,,0.00,meteobridge,2013-10-12 18:23:00,
2013-10-12 12:28:00,59.7,34.0,30.09,North,11,0.0,2.9,38,0.00,,,0.00,meteobridge,2013-10-12 18:28:00,
2013-10-12 12:34:00,59.7,34.7,30.09,NNW,329,0.9,4.0,39,0.00,,,0.00,meteobridge,2013-10-12 18:34:00,
2013-10-12 12:39:00,60.3,34.5,30.09,NW,323,0.9,2.9,38,0.00,,,0.00,meteobridge,2013-10-12 18:39:00,
2013-10-12 12:44:00,60.6,35.6,30.09,WNW,288,0.0,0.9,39,0.00,,,0.00,meteobridge,2013-10-12 18:44:00,
2013-10-12 12:49:00,61.3,35.6,30.08,North,355,0.0,4.0,38,0.00,,,0.00,meteobridge,2013-10-12 18:49:00,
2013-10-12 12:54:00,61.3,34.2,30.08,WNW,282,0.0,2.9,36,0.00,,,0.00,meteobridge,2013-10-12 18:54:00,
2013-10-12 12:59:00,61.5,35.1,30.08,NNW,347,2.0,2.9,37,0.00,,,0.00,meteobridge,2013-10-12 18:59:00,
2013-10-12 13:04:00,62.1,35.4,30.07,SSE,159,0.9,2.0,37,0.00,,,0.00,meteobridge,2013-10-12 19:04:00,
2013-10-12 13:09:00,62.2,34.9,30.07,NW,321,2.0,2.9,36,0.00,,,0.00,meteobridge,2013-10-12 19:09:00,
2013-10-12 13:14:00,63.1,35.8,30.07,SSE,160,4.0,4.0,36,0.00,,,0.00,meteobridge,2013-10-12 19:14:00,
2013-10-12 13:19:00,63.1,35.8,30.06,NE,42,0.0,2.0,36,0.00,,,0.00,meteobridge,2013-10-12 19:19:00,
2013-10-12 13:24:00,64.6,34.9,30.06,East,87,2.0,4.0,33,0.00,,,0.00,meteobridge,2013-10-12 19:24:00,
2013-10-12 13:29:00,63.9,35.6,30.06,WSW,250,0.9,2.9,35,0.00,,,0.00,meteobridge,2013-10-12 19:29:00,
2013-10-12 13:34:00,64.2,35.2,30.06,ESE,106,2.0,2.0,34,0.00,,,0.00,meteobridge,2013-10-12 19:34:00,
2013-10-12 13:39:00,64.6,34.0,30.05,SE,141,0.0,4.9,32,0.00,,,0.00,meteobridge,2013-10-12 19:39:00,
2013-10-12 13:44:00,64.6,34.9,30.05,ESE,123,4.0,4.9,33,0.00,,,0.00,meteobridge,2013-10-12 19:44:00,
2013-10-12 13:49:00,64.4,34.7,30.04,SSW,194,4.0,4.9,33,0.00,,,0.00,meteobridge,2013-10-12 19:49:00,
2013-10-12 13:54:00,63.9,34.9,30.04,WSW,240,0.0,2.0,34,0.00,,,0.00,meteobridge,2013-10-12 19:54:00,
2013-10-12 14:00:00,65.7,35.1,30.03,WSW,241,0.0,4.9,32,0.00,,,0.00,meteobridge,2013-10-12 20:00:00,
2013-10-12 14:05:00,64.9,35.1,30.03,West,269,2.0,2.9,33,0.00,,,0.00,meteobridge,2013-10-12 20:05:00,
2013-10-12 14:10:00,66.0,34.5,30.03,NNW,344,2.9,4.9,31,0.00,,,0.00,meteobridge,2013-10-12 20:10:00,
2013-10-12 14:15:00,66.6,35.8,30.03,West,265,0.9,4.0,32,0.00,,,0.00,meteobridge,2013-10-12 20:15:00,
2013-10-12 14:20:00,67.3,34.7,30.03,SSW,196,4.0,4.9,30,0.00,,,0.00,meteobridge,2013-10-12 20:20:00,
2013-10-12 14:25:00,66.7,35.1,30.02,ESE,119,0.9,6.9,31,0.00,,,0.00,meteobridge,2013-10-12 20:25:00,
2013-10-12 14:30:00,68.4,34.9,30.02,West,261,4.0,6.0,29,0.00,,,0.00,meteobridge,2013-10-12 20:30:00,
2013-10-12 14:35:00,68.2,34.7,30.02,SSE,160,0.9,4.9,29,0.00,,,0.00,meteobridge,2013-10-12 20:35:00,
2013-10-12 14:40:00,68.5,34.2,30.02,ESE,123,0.9,4.9,28,0.00,,,0.00,meteobridge,2013-10-12 20:40:00,
2013-10-12 14:46:00,67.5,34.2,30.02,West,263,2.9,6.9,29,0.00,,,0.00,meteobridge,2013-10-12 20:46:00,
2013-10-12 14:51:00,67.5,34.9,30.02,SW,217,2.0,4.9,30,0.00,,,0.00,meteobridge,2013-10-12 20:51:00,
2013-10-12 14:56:00,67.5,32.4,30.01,ESE,119,0.0,2.0,27,0.00,,,0.00,meteobridge,2013-10-12 20:56:00,
2013-10-12 15:01:00,68.2,33.8,30.01,SSW,198,0.0,6.0,28,0.00,,,0.00,meteobridge,2013-10-12 21:01:00,
2013-10-12 15:06:00,68.9,33.6,30.01,SSW,205,6.9,6.9,27,0.00,,,0.00,meteobridge,2013-10-12 21:06:00,
2013-10-12 15:11:00,69.3,32.9,30.01,SE,139,0.0,4.0,26,0.00,,,0.00,meteobridge,2013-10-12 21:11:00,
2013-10-12 15:16:00,69.6,33.3,30.00,South,183,6.9,6.9,26,0.00,,,0.00,meteobridge,2013-10-12 21:16:00,
2013-10-12 15:21:00,69.4,33.1,30.00,WSW,238,2.9,4.0,26,0.00,,,0.00,meteobridge,2013-10-12 21:21:00,
2013-10-12 15:26:00,69.4,34.0,30.00,SSW,192,0.9,4.9,27,0.00,,,0.00,meteobridge,2013-10-12 21:26:00,
2013-10-12 15:31:00,69.6,32.2,29.99,SE,127,2.0,4.9,25,0.00,,,0.00,meteobridge,2013-10-12 21:31:00,
2013-10-12 15:36:00,70.0,33.4,29.99,SW,227,2.9,4.9,26,0.00,,,0.00,meteobridge,2013-10-12 21:36:00,
2013-10-12 15:41:00,70.0,32.5,29.99,SW,233,2.9,6.9,25,0.00,,,0.00,meteobridge,2013-10-12 21:41:00,
2013-10-12 15:47:00,70.2,32.7,29.98,NW,309,0.9,2.0,25,0.00,,,0.00,meteobridge,2013-10-12 21:47:00,
2013-10-12 15:52:00,70.3,32.9,29.98,SW,236,2.0,4.0,25,0.00,,,0.00,meteobridge,2013-10-12 21:52:00,
2013-10-12 15:57:00,70.0,32.5,29.98,WSW,250,4.0,4.9,25,0.00,,,0.00,meteobridge,2013-10-12 21:57:00,
2013-10-12 16:02:00,69.4,32.0,29.98,SW,225,0.0,6.0,25,0.00,,,0.00,meteobridge,2013-10-12 22:02:00,
2013-10-12 16:07:00,69.1,31.8,29.97,South,170,0.9,2.0,25,0.00,,,0.00,meteobridge,2013-10-12 22:07:00,
2013-10-12 16:12:00,69.8,32.4,29.97,SE,140,0.9,2.9,25,0.00,,,0.00,meteobridge,2013-10-12 22:12:00,
2013-10-12 16:17:00,70.0,32.5,29.97,SSE,167,2.9,4.0,25,0.00,,,0.00,meteobridge,2013-10-12 22:17:00,
2013-10-12 16:22:00,69.6,33.3,29.97,SSW,193,2.0,4.0,26,0.00,,,0.00,meteobridge,2013-10-12 22:22:00,
2013-10-12 16:27:00,69.4,32.0,29.97,SSE,162,0.9,2.9,25,0.00,,,0.00,meteobridge,2013-10-12 22:27:00,
2013-10-12 16:32:00,70.0,32.5,29.96,ESE,119,0.0,2.9,25,0.00,,,0.00,meteobridge,2013-10-12 22:32:00,
2013-10-12 16:38:00,70.3,32.9,29.96,ESE,119,0.0,0.9,25,0.00,,,0.00,meteobridge,2013-10-12 22:38:00,
2013-10-12 16:43:00,70.5,32.0,29.96,ESE,119,0.0,0.9,24,0.00,,,0.00,meteobridge,2013-10-12 22:43:00,
2013-10-12 16:48:00,70.9,34.3,29.96,SSE,155,2.0,2.9,26,0.00,,,0.00,meteobridge,2013-10-12 22:48:00,
2013-10-12 16:53:00,70.5,32.0,29.96,South,169,2.0,4.0,24,0.00,,,0.00,meteobridge,2013-10-12 22:53:00,
2013-10-12 16:58:00,70.5,34.0,29.96,NNW,329,0.0,2.0,26,0.00,,,0.00,meteobridge,2013-10-12 22:58:00,
2013-10-12 17:03:00,70.5,34.9,29.96,West,275,0.9,2.0,27,0.00,,,0.00,meteobridge,2013-10-12 23:03:00,
2013-10-12 17:08:00,70.5,33.1,29.96,SSE,166,2.0,4.0,25,0.00,,,0.00,meteobridge,2013-10-12 23:08:00,
2013-10-12 17:13:00,70.0,33.4,29.96,South,179,2.9,4.9,26,0.00,,,0.00,meteobridge,2013-10-12 23:13:00,
2013-10-12 17:18:00,69.6,33.3,29.96,SW,229,6.0,6.0,26,0.00,,,0.00,meteobridge,2013-10-12 23:18:00,
2013-10-12 17:24:00,69.4,33.1,29.96,WNW,286,0.9,4.0,26,0.00,,,0.00,meteobridge,2013-10-12 23:24:00,
2013-10-12 17:29:00,69.4,34.0,29.96,SW,227,2.9,6.0,27,0.00,,,0.00,meteobridge,2013-10-12 23:29:00,
2013-10-12 17:34:00,69.1,33.6,29.96,SSW,196,0.0,0.0,27,0.00,,,0.00,meteobridge,2013-10-12 23:34:00,
2013-10-12 17:39:00,68.7,34.3,29.96,WNW,296,0.0,0.9,28,0.00,,,0.00,meteobridge,2013-10-12 23:39:00,
2013-10-12 17:44:00,68.7,33.4,29.96,SW,223,2.0,2.9,27,0.00,,,0.00,meteobridge,2013-10-12 23:44:00,
2013-10-12 17:49:00,68.4,34.0,29.96,WSW,237,0.9,2.9,28,0.00,,,0.00,meteobridge,2013-10-12 23:49:00,
2013-10-12 17:54:00,68.0,34.5,29.96,SSW,194,0.0,4.0,29,0.00,,,0.00,meteobridge,2013-10-12 23:54:00,
2013-10-12 17:59:00,67.6,34.2,29.96,WSW,247,0.0,0.9,29,0.00,,,0.00,meteobridge,2013-10-12 23:59:00,
2013-10-12 18:05:00,67.3,34.0,29.96,WSW,247,0.0,2.0,29,0.00,,,0.00,meteobridge,2013-10-13 00:05:00,
2013-10-12 18:10:00,67.1,35.4,29.96,WSW,247,0.0,0.0,31,0.00,,,0.00,meteobridge,2013-10-13 00:10:00,
2013-10-12 18:15:00,66.7,35.1,29.96,WSW,247,0.0,0.9,31,0.00,,,0.00,meteobridge,2013-10-13 00:15:00,
2013-10-12 18:20:00,66.0,35.2,29.96,WSW,247,0.0,0.0,32,0.00,,,0.00,meteobridge,2013-10-13 00:20:00,
2013-10-12 18:25:00,65.5,37.8,29.96,WSW,247,0.0,0.0,36,0.00,,,0.00,meteobridge,2013-10-13 00:25:00,
2013-10-12 18:30:00,64.6,38.5,29.96,WSW,247,0.0,0.0,38,0.00,,,0.00,meteobridge,2013-10-13 00:30:00,
2013-10-12 18:35:00,63.7,38.3,29.96,WSW,247,0.0,0.0,39,0.00,,,0.00,meteobridge,2013-10-13 00:35:00,
2013-10-12 18:40:00,63.1,37.8,29.97,WSW,247,0.0,0.0,39,0.00,,,0.00,meteobridge,2013-10-13 00:40:00,
2013-10-12 18:46:00,62.4,38.5,29.97,WSW,247,0.0,0.0,41,0.00,,,0.00,meteobridge,2013-10-13 00:46:00,
2013-10-12 18:51:00,61.9,38.5,29.97,WSW,247,0.0,0.0,42,0.00,,,0.00,meteobridge,2013-10-13 00:51:00,
2013-10-12 18:56:00,61.2,39.0,29.97,WSW,247,0.0,0.0,44,0.00,,,0.00,meteobridge,2013-10-13 00:56:00,
2013-10-12 19:01:00,60.8,38.1,29.97,WSW,247,0.0,0.0,43,0.00,,,0.00,meteobridge,2013-10-13 01:01:00,
2013-10-12 19:06:00,60.4,37.8,29.97,WSW,247,0.0,0.0,43,0.00,,,0.00,meteobridge,2013-10-13 01:06:00,
2013-10-12 19:11:00,60.1,38.1,29.97,WSW,247,0.0,0.9,44,0.00,,,0.00,meteobridge,2013-10-13 01:11:00,
2013-10-12 19:16:00,59.5,38.1,29.97,WSW,247,0.0,0.0,45,0.00,,,0.00,meteobridge,2013-10-13 01:16:00,
2013-10-12 19:21:00,59.7,38.3,29.98,South,177,0.0,0.0,45,0.00,,,0.00,meteobridge,2013-10-13 01:21:00,
2013-10-12 19:26:00,59.9,37.4,29.98,SE,129,0.9,0.9,43,0.00,,,0.00,meteobridge,2013-10-13 01:26:00,
2013-10-12 19:32:00,60.4,35.4,29.98,SSE,149,2.9,4.9,39,0.00,,,0.00,meteobridge,2013-10-13 01:32:00,
2013-10-12 19:37:00,61.7,35.2,29.99,SSE,154,0.0,6.0,37,0.00,,,0.00,meteobridge,2013-10-13 01:37:00,
2013-10-12 19:41:00,62.2,34.9,29.99,ESE,121,2.0,4.0,36,0.00,,,0.00,meteobridge,2013-10-13 01:41:00,
2013-10-12 19:47:00,62.2,35.6,29.99,ESE,117,0.9,4.9,37,0.00,,,0.00,meteobridge,2013-10-13 01:47:00,
2013-10-12 19:52:00,62.2,35.6,29.99,ESE,108,2.0,6.0,37,0.00,,,0.00,meteobridge,2013-10-13 01:52:00,
2013-10-12 19:57:00,62.2,35.6,29.99,East,96,4.9,4.9,37,0.00,,,0.00,meteobridge,2013-10-13 01:57:00,
2013-10-12 19:59:00,62.1,35.4,29.99,East,100,4.9,8.1,37,0.00,,,0.00,meteobridge,2013-10-13 01:59:00,
2013-10-12 20:04:00,62.1,36.1,29.99,ESE,105,2.9,8.1,38,0.00,,,0.00,meteobridge,2013-10-13 02:04:00,
2013-10-12 20:09:00,61.9,36.0,29.99,ESE,122,2.9,6.9,38,0.00,,,0.00,meteobridge,2013-10-13 02:09:00,
2013-10-12 20:14:00,61.9,36.0,29.99,East,101,4.9,10.1,38,0.00,,,0.00,meteobridge,2013-10-13 02:14:00,
2013-10-12 20:19:00,61.7,35.8,29.99,ESE,106,4.0,6.9,38,0.00,,,0.00,meteobridge,2013-10-13 02:19:00,
2013-10-12 20:24:00,61.5,35.6,29.99,East,101,2.9,8.1,38,0.00,,,0.00,meteobridge,2013-10-13 02:24:00,
2013-10-12 20:29:00,61.5,35.6,29.99,East,94,8.1,12.1,38,0.00,,,0.00,meteobridge,2013-10-13 02:29:00,
2013-10-12 20:34:00,61.5,35.6,29.99,SE,133,2.9,8.9,38,0.00,,,0.00,meteobridge,2013-10-13 02:34:00,
2013-10-12 20:39:00,61.3,35.6,29.99,SSE,160,0.9,12.1,38,0.00,,,0.00,meteobridge,2013-10-13 02:39:00,
2013-10-12 20:44:00,61.3,35.6,30.00,SE,128,6.0,12.1,38,0.00,,,0.00,meteobridge,2013-10-13 02:44:00,
2013-10-12 20:49:00,61.3,35.6,30.00,East,93,0.9,13.0,38,0.00,,,0.00,meteobridge,2013-10-13 02:49:00,
2013-10-12 20:54:00,61.2,35.4,30.00,SE,130,6.9,10.1,38,0.00,,,0.00,meteobridge,2013-10-13 02:54:00,
2013-10-12 20:59:00,61.2,35.4,30.00,East,93,6.0,8.9,38,0.00,,,0.00,meteobridge,2013-10-13 02:59:00,
2013-10-12 21:04:00,61.0,35.2,30.00,ESE,120,8.1,13.0,38,0.00,,,0.00,meteobridge,2013-10-13 03:04:00,
2013-10-12 21:09:00,61.0,35.8,30.00,ENE,77,4.9,10.1,39,0.00,,,0.00,meteobridge,2013-10-13 03:09:00,
2013-10-12 21:14:00,60.8,35.6,30.00,SSE,154,4.9,10.1,39,0.00,,,0.00,meteobridge,2013-10-13 03:14:00,
2013-10-12 21:19:00,60.6,35.6,30.00,ENE,72,8.1,13.0,39,0.00,,,0.00,meteobridge,2013-10-13 03:19:00,
2013-10-12 21:24:00,60.4,36.0,30.00,ESE,107,4.9,10.1,40,0.00,,,0.00,meteobridge,2013-10-13 03:24:00,
2013-10-12 21:29:00,60.4,36.0,30.00,ESE,123,8.1,11.0,40,0.00,,,0.00,meteobridge,2013-10-13 03:29:00,
2013-10-12 21:34:00,60.4,36.0,30.00,ESE,107,8.9,10.1,40,0.00,,,0.00,meteobridge,2013-10-13 03:34:00,
2013-10-12 21:39:00,60.3,35.8,30.00,ESE,110,8.9,8.9,40,0.00,,,0.00,meteobridge,2013-10-13 03:39:00,
2013-10-12 21:44:00,60.3,35.8,30.00,SE,133,4.0,10.1,40,0.00,,,0.00,meteobridge,2013-10-13 03:44:00,
2013-10-12 21:49:00,60.3,35.8,30.00,ESE,116,11.0,12.1,40,0.00,,,0.00,meteobridge,2013-10-13 03:49:00,
2013-10-12 21:54:00,60.1,35.6,30.00,East,99,6.9,10.1,40,0.00,,,0.00,meteobridge,2013-10-13 03:54:00,
2013-10-12 21:59:00,60.1,35.6,30.01,SE,136,6.0,11.0,40,0.00,,,0.00,meteobridge,2013-10-13 03:59:00,
2013-10-12 22:01:00,60.1,35.6,30.00,SSE,148,10.1,10.1,40,0.00,,,0.00,meteobridge,2013-10-13 04:01:00,
2013-10-12 22:02:00,60.1,35.6,30.00,ENE,63,4.9,11.0,40,0.00,,,0.00,meteobridge,2013-10-13 04:02:00,
2013-10-12 22:07:00,60.1,35.6,30.01,ESE,103,4.0,10.1,40,0.00,,,0.00,meteobridge,2013-10-13 04:07:00,
2013-10-12 22:12:00,60.1,35.6,30.01,East,90,6.0,16.1,40,0.00,,,0.00,meteobridge,2013-10-13 04:12:00,
2013-10-12 22:17:00,60.1,35.6,30.01,SE,137,8.1,10.1,40,0.00,,,0.00,meteobridge,2013-10-13 04:17:00,
2013-10-12 22:22:00,60.1,35.6,30.01,East,92,2.9,8.9,40,0.00,,,0.00,meteobridge,2013-10-13 04:22:00,
2013-10-12 22:27:00,60.1,35.6,30.01,ESE,115,6.9,8.1,40,0.00,,,0.00,meteobridge,2013-10-13 04:27:00,
2013-10-12 22:32:00,60.1,35.1,30.01,ESE,111,4.0,11.0,39,0.00,,,0.00,meteobridge,2013-10-13 04:32:00,
2013-10-12 22:37:00,60.1,35.6,30.01,ESE,103,4.0,10.1,40,0.00,,,0.00,meteobridge,2013-10-13 04:37:00,
2013-10-12 22:42:00,60.1,35.1,30.01,ESE,113,6.9,11.0,39,0.00,,,0.00,meteobridge,2013-10-13 04:42:00,
2013-10-12 22:47:00,60.1,35.1,30.01,East,97,8.1,10.1,39,0.00,,,0.00,meteobridge,2013-10-13 04:47:00,
2013-10-12 22:53:00,60.1,35.1,30.01,ESE,115,6.9,11.0,39,0.00,,,0.00,meteobridge,2013-10-13 04:53:00,
2013-10-12 22:58:00,60.3,35.2,30.01,ESE,103,4.9,13.0,39,0.00,,,0.00,meteobridge,2013-10-13 04:58:00,
2013-10-12 23:03:00,60.3,35.2,30.00,NE,46,4.9,14.1,39,0.00,,,0.00,meteobridge,2013-10-13 05:03:00,
2013-10-12 23:08:00,60.3,35.2,30.00,ESE,117,4.0,8.1,39,0.00,,,0.00,meteobridge,2013-10-13 05:08:00,
2013-10-12 23:13:00,60.1,35.1,30.00,ESE,111,8.1,10.1,39,0.00,,,0.00,meteobridge,2013-10-13 05:13:00,
2013-10-12 23:18:00,60.3,35.2,30.00,East,101,4.9,10.1,39,0.00,,,0.00,meteobridge,2013-10-13 05:18:00,
2013-10-12 23:23:00,60.3,35.2,30.00,ESE,118,0.0,8.1,39,0.00,,,0.00,meteobridge,2013-10-13 05:23:00,
2013-10-12 23:28:00,60.1,35.1,30.00,ESE,115,2.9,6.9,39,0.00,,,0.00,meteobridge,2013-10-13 05:28:00,
2013-10-12 23:33:00,60.1,35.1,30.00,ESE,107,4.0,11.0,39,0.00,,,0.00,meteobridge,2013-10-13 05:33:00,
2013-10-12 23:38:00,60.1,35.1,30.00,ESE,120,0.9,11.0,39,0.00,,,0.00,meteobridge,2013-10-13 05:38:00,
2013-10-12 23:43:00,60.1,35.1,30.00,East,82,2.9,8.9,39,0.00,,,0.00,meteobridge,2013-10-13 05:43:00,
2013-10-12 23:48:00,59.9,34.9,30.00,East,86,8.1,10.1,39,0.00,,,0.00,meteobridge,2013-10-13 05:48:00,
2013-10-12 23:53:00,59.9,34.9,30.01,ENE,71,2.0,11.0,39,0.00,,,0.00,meteobridge,2013-10-13 05:53:00,
2013-10-12 23:58:00,59.9,34.9,30.01,NE,49,2.0,4.9,39,0.00,,,0.00,meteobridge,2013-10-13 05:58:00,